DW7394 Weather Reports


Display with metric or nautical units.
time (UTC)temp
F
wind
direction
speed
MPH
gust
MPH
rain 1hr
in
rain 24hr
in
rain mn
in
humidity
%
barometer
mb
20260505011029 68 229 10.0 18.0 0.00 0.01 0.01 58 1003.3
20260505010529 68 179 7.0 26.0 0.00 0.01 0.01 58 1003.4
20260505010030 68 204 13.0 26.0 0.00 0.01 0.01 58 1003.4
20260505005533 68 210 8.0 21.0 0.00 0.01 0.01 58 1003.2
20260505005029 68 220 8.0 20.0 0.00 0.01 0.01 58 1003.2
20260505004529 68 177 8.0 18.0 0.00 0.01 0.01 58 1003.1
20260505004029 68 214 8.0 20.0 0.00 0.01 0.01 58 1003.0
20260505003533 68 199 11.0 20.0 0.00 0.01 0.01 58 1003.0
20260505003032 68 309 6.0 18.0 0.00 0.01 0.01 57 1003.0
20260505002528 69 218 9.0 21.0 0.00 0.01 0.01 57 1003.0
20260505002030 69 238 9.0 30.0 0.00 0.01 0.01 57 1002.9
20260505001528 69 167 15.0 30.0 0.00 0.01 0.01 57 1002.8
20260505001029 69 211 16.0 28.0 0.00 0.01 0.01 57 1002.8
20260505000531 69 184 10.0 26.0 0.00 0.01 0.01 57 1002.6
20260505000029 69 176 9.0 21.0 0.00 0.01 0.01 57 1002.5
20260504235527 70 217 9.0 27.0 0.00 0.01 0.01 56 1002.4
20260504235027 70 189 19.0 27.0 0.00 0.01 0.01 56 1002.3
20260504234526 70 185 9.0 21.0 0.00 0.01 0.01 56 1002.3
20260504234031 70 190 11.0 19.0 0.01 0.01 0.01 57 1002.3
20260504233526 70 194 9.0 33.0 0.01 0.01 0.01 57 1002.2
20260504233026 70 240 18.0 33.0 0.01 0.01 0.01 57 1002.3
20260504232526 70 191 8.0 26.0 0.01 0.01 0.01 58 1002.2
20260504232027 70 202 7.0 35.0 0.01 0.01 0.01 58 1002.2
20260504231526 70 209 9.0 35.0 0.01 0.01 0.01 58 1002.2
20260504231025 70 181 14.0 31.0 0.01 0.01 0.01 59 1002.3
20260504230525 70 214 11.0 29.0 0.01 0.01 0.01 60 1002.4
20260504230025 70 216 14.0 39.0 0.01 0.01 0.01 60 1002.2
20260504225524 69 196 14.0 39.0 0.01 0.01 0.01 61 1002.4
20260504225024 69 220 9.0 31.0 0.01 0.01 0.01 63 1002.7
20260504224522 69 229 13.0 32.0 0.01 0.01 0.01 63 1002.7
20260504224022 68 184 16.0 32.0 0.00 0.00 0.00 64 1002.7
20260504223521 68 205 8.0 21.0 0.00 0.00 0.00 67 1002.6
20260504223020 67 183 11.0 21.0 0.00 0.00 0.00 68 1002.7
20260504222523 67 160 5.0 17.0 0.00 0.00 0.00 69 1002.8
20260504222021 67 214 7.0 17.0 0.00 0.00 0.00 70 1002.8
20260504221518 67 126 4.0 11.0 0.00 0.00 0.00 70 1003.0
20260504221018 67 227 6.0 18.0 0.00 0.00 0.00 68 1003.2
20260504220518 68 206 8.0 27.0 0.00 0.00 0.00 68 1003.2
20260504220029 68 204 10.0 35.0 0.00 0.00 0.00 66 1003.3
20260504215515 69 210 19.0 35.0 0.00 0.00 0.00 64 1003.5
20260504215014 71 153 17.0 31.0 0.00 0.00 0.00 57 1003.2
20260504214520 71 260 7.0 23.0 0.00 0.00 0.00 56 1003.1
20260504214017 71 194 13.0 23.0 0.00 0.00 0.00 56 1003.1
20260504213513 71 274 10.0 21.0 0.00 0.00 0.00 56 1002.9
20260504213133 71 276 9.0 20.0 0.00 0.00 0.00 57 1002.9
20260504212511 71 167 9.0 28.0 0.00 0.00 0.00 56 1003.0
20260504212010 71 184 15.0 24.0 0.00 0.00 0.00 55 1003.0
20260504211521 71 197 13.0 28.0 0.00 0.00 0.00 54 1003.1
20260504211008 71 201 15.0 28.0 0.00 0.00 0.00 54 1003.3
20260504210508 71 204 14.0 28.0 0.00 0.00 0.00 55 1003.4
20260504210007 71 219 13.0 28.0 0.00 0.00 0.00 54 1003.3
20260504205509 71 201 14.0 26.0 0.00 0.00 0.00 53 1003.5
20260504205005 72 206 13.0 29.0 0.00 0.00 0.00 52 1003.5
20260504204514 72 226 8.0 32.0 0.00 0.00 0.00 53 1003.5
20260504204005 72 215 15.0 37.0 0.00 0.00 0.00 52 1003.5
20260504203508 72 207 15.0 37.0 0.00 0.00 0.00 51 1003.5
20260504203006 72 166 13.0 31.0 0.00 0.00 0.00 51 1003.6
20260504202503 72 205 15.0 35.0 0.00 0.00 0.00 51 1003.7
20260504202001 73 231 18.0 35.0 0.00 0.00 0.00 49 1003.8
20260504201503 73 213 16.0 28.0 0.00 0.00 0.00 50 1003.9
20260504201001 73 229 15.0 24.0 0.00 0.00 0.00 50 1003.7
20260504200600 73 220 12.0 29.0 0.00 0.00 0.00 49 1003.8
20260504200107 73 213 15.0 36.0 0.00 0.00 0.00 49 1003.9
20260504195559 73 161 11.0 36.0 0.00 0.00 0.00 50 1004.0
20260504195059 73 221 14.0 28.0 0.00 0.00 0.00 48 1004.1
20260504194609 73 189 16.0 36.0 0.00 0.00 0.00 48 1004.2
20260504194058 73 195 14.0 36.0 0.00 0.00 0.00 49 1004.1
20260504193558 73 175 13.0 25.0 0.00 0.00 0.00 49 1004.1
20260504193104 73 188 13.0 36.0 0.00 0.00 0.00 50 1004.2
20260504192555 73 221 15.0 36.0 0.00 0.00 0.00 47 1004.4
20260504192104 73 211 12.0 25.0 0.00 0.00 0.00 51 1004.5
20260504191600 72 185 13.0 26.0 0.00 0.00 0.00 50 1004.4
20260504191054 72 180 13.0 34.0 0.00 0.00 0.00 51 1004.6
20260504190553 72 131 14.0 34.0 0.00 0.00 0.00 51 1004.6
20260504190113 72 180 10.0 27.0 0.00 0.00 0.00 51 1004.7
20260504185556 72 162 12.0 27.0 0.00 0.00 0.00 51 1004.7
20260504185050 72 176 13.0 27.0 0.00 0.00 0.00 51 1004.9
20260504184608 72 197 14.0 26.0 0.00 0.00 0.00 51 1004.9
20260504184049 72 245 13.0 31.0 0.00 0.00 0.00 52 1005.0
20260504183549 72 223 17.0 31.0 0.00 0.00 0.00 51 1005.1
20260504183048 72 216 16.0 35.0 0.00 0.00 0.00 51 1005.2
20260504182547 72 218 13.0 35.0 0.00 0.00 0.00 51 1005.1
20260504182047 72 234 16.0 28.0 0.00 0.00 0.00 50 1005.2
20260504181548 72 198 10.0 31.0 0.00 0.00 0.00 49 1005.2
20260504181044 72 221 12.0 31.0 0.00 0.00 0.00 53 1005.2
20260504180544 71 171 9.0 29.0 0.00 0.00 0.00 49 1005.2
20260504180044 72 147 14.0 28.0 0.00 0.00 0.00 49 1005.4
20260504175542 71 230 8.0 28.0 0.00 0.00 0.00 51 1005.4
20260504175042 71 227 12.0 27.0 0.00 0.00 0.00 51 1005.5
20260504174542 71 130 13.0 27.0 0.00 0.00 0.00 49 1005.5
20260504174041 71 173 15.0 27.0 0.00 0.00 0.00 50 1005.6
20260504173541 71 176 10.0 21.0 0.00 0.00 0.00 50 1005.6
20260504173039 71 154 9.0 26.0 0.00 0.00 0.00 51 1005.7
20260504172539 71 163 11.0 26.0 0.00 0.00 0.00 50 1005.6
20260504172038 71 188 11.0 26.0 0.00 0.00 0.00 50 1005.7
20260504171537 71 209 8.0 18.0 0.00 0.00 0.00 52 1005.8
20260504171037 71 214 8.0 19.0 0.00 0.00 0.00 54 1005.8
20260504170534 70 223 8.0 25.0 0.00 0.00 0.00 52 1005.9
20260504151011 65 220 11.0 28.0 0.00 0.00 0.00 56 1007.0
20260504150510 65 211 13.0 28.0 0.00 0.00 0.00 56 1007.0
20260504141056 62 240 11.0 20.0 0.00 0.00 0.00 59 1007.3
20260504140554 61 204 11.0 19.0 0.00 0.00 0.00 60 1007.4
20260504140107 61 203 8.0 21.0 0.00 0.00 0.00 60 1007.5
20260504130541 57 213 9.0 20.0 0.00 0.00 0.00 62 1007.8
20260504110519 50 216 10.0 24.0 0.00 0.00 0.00 65 1007.7
20260504100511 51 180 9.0 23.0 0.00 0.00 0.00 64 1007.6
20260504081557 51 210 13.0 25.0 0.00 0.00 0.00 62 1008.5
20260504081057 51 202 12.0 25.0 0.00 0.00 0.00 62 1008.6
20260504080559 51 212 11.0 24.0 0.00 0.00 0.00 62 1008.6
20260504050531 50 213 8.0 21.0 0.00 0.00 0.00 63 1010.9
20260504045525 50 243 11.0 25.0 0.00 0.00 0.00 63 1011.1
20260504045024 50 182 6.0 25.0 0.00 0.00 0.00 63 1011.1
20260504044526 50 201 9.0 25.0 0.00 0.00 0.00 62 1011.1
20260504044023 50 190 10.0 21.0 0.00 0.00 0.00 62 1011.2
20260504043522 50 206 7.0 17.0 0.00 0.00 0.00 62 1011.2
20260504043021 50 232 9.0 20.0 0.00 0.00 0.00 62 1011.2
20260504042521 51 215 10.0 20.0 0.00 0.00 0.00 62 1011.3
20260504042018 51 177 9.0 18.0 0.00 0.00 0.00 62 1011.3
20260504041517 51 120 9.0 20.0 0.00 0.00 0.00 62 1011.3
20260504041016 51 236 10.0 20.0 0.00 0.00 0.00 62 1011.4
20260504040515 51 191 8.0 18.0 0.00 0.00 0.00 63 1011.4
20260504040014 51 222 6.0 15.0 0.00 0.00 0.00 63 1011.4
20260504035515 51 205 6.0 15.0 0.00 0.00 0.00 63 1011.5
20260504035013 51 187 7.0 16.0 0.00 0.00 0.00 63 1011.5
20260504034523 51 221 6.0 17.0 0.00 0.00 0.00 63 1011.6
20260504034012 51 208 6.0 15.0 0.00 0.00 0.00 63 1011.7
20260504033511 51 152 9.0 15.0 0.00 0.00 0.00 63 1011.8
20260504033021 51 281 6.0 15.0 0.00 0.00 0.00 63 1011.9
20260504032511 51 184 4.0 18.0 0.00 0.00 0.00 63 1011.9
20260504032012 51 236 6.0 18.0 0.00 0.00 0.00 63 1011.9
20260504031510 51 208 7.0 16.0 0.00 0.00 0.00 63 1012.0
20260504031010 51 194 6.0 17.0 0.00 0.00 0.00 63 1012.0
20260504030512 50 223 9.0 17.0 0.00 0.00 0.00 63 1012.1
20260504030010 51 201 7.0 16.0 0.00 0.00 0.00 63 1012.1
20260504025512 51 179 10.0 16.0 0.00 0.00 0.00 63 1012.2
20260504025010 51 151 5.0 14.0 0.00 0.00 0.00 63 1012.2
20260504024530 51 209 7.0 15.0 0.00 0.00 0.00 63 1012.2
20260504024009 51 215 6.0 17.0 0.00 0.00 0.00 62 1012.3
20260504023509 51 205 9.0 17.0 0.00 0.00 0.00 62 1012.4
20260504023009 51 236 8.0 17.0 0.00 0.00 0.00 62 1012.5
20260504022509 51 218 7.0 15.0 0.00 0.00 0.00 62 1012.6
20260504022109 51 252 6.0 17.0 0.00 0.00 0.00 61 1012.7
20260504021508 51 233 9.0 18.0 0.00 0.00 0.00 61 1012.6
20260504021008 51 205 10.0 18.0 0.00 0.00 0.00 60 1012.6
20260504020508 52 222 9.0 23.0 0.00 0.00 0.00 59 1012.7
20260504020110 52 248 4.0 23.0 0.00 0.00 0.00 59 1012.6
20260504015507 52 269 12.0 29.0 0.00 0.00 0.00 57 1012.6
20260504015007 52 255 7.0 29.0 0.00 0.00 0.00 56 1012.5
20260504014507 52 240 14.0 26.0 0.00 0.00 0.00 54 1012.5
20260504014010 52 241 4.0 14.0 0.00 0.00 0.00 53 1012.4
20260504013506 52 228 5.0 14.0 0.00 0.00 0.00 53 1012.2
20260504013006 53 236 6.0 13.0 0.00 0.00 0.00 53 1012.0
20260504012506 53 215 7.0 13.0 0.00 0.00 0.00 52 1011.9
20260504012006 53 221 5.0 14.0 0.00 0.00 0.00 52 1011.9
20260504011505 53 204 7.0 14.0 0.00 0.00 0.00 52 1011.9